Wind_Speed
3 1 2 3 4 5 4 2 2 2 2 1 4 1 4 5 3 5 8 4 4 2 2 7 7 7 8 10 11 10 7 2 2 3 3 2 16 22 19 26 33 33 33 29 27 25 23 24 23 24 25 25 25 24 25 24 23 23 22 21 20 19 18 18 18 17 17 16 16 16 16 15 15 14 13 13 13 13 13 12 13 13 13 14 15 15 15 16 17 16 16 15 14 13 13 14 15
2 1 2 4 4 2 1 2 2 1 3 3 4 4 5 4 3 5 8 1 7 3 4 10 11 13 13 13 10 8 9 7 5 4 4 15 21 19 22 26 27 31 34 31 28 26 24 23 23 24 24 24 24 23 23 22 23 23 22 21 20 19 18 18 18 17 17 16 15 15 15 15 15 14 13 13 13 13 12 12 12 13 13 13 14 14 14 15 16 15 15 13 12 13 14 14 15
3 3 2 4 2 2 0 2 3 1 3 4 4 3 5 5 6 7 7 6 11 8 6 8 8 6 6 9 5 5 5 4 9 7 7 18 17 17 26 26 26 28 30 29 26 24 22 20 22 23 23 24 23 22 23 22 22 23 22 21 20 20 18 18 18 17 17 16 15 14 14 14 14 13 13 12 13 13 12 12 12 13 12 12 13 13 13 13 14 14 14 13 12 13 14 14 16
4 3 3 3 2 2 3 2 2 4 2 5 4 5 5 5 6 6 7 6 10 9 6 5 6 5 6 11 5 5 6 4 9 8 6 13 15 21 31 34 33 27 25 25 22 22 20 20 22 22 23 23 22 22 22 21 22 22 22 21 20 20 18 18 17 17 17 16 15 14 14 13 13 13 13 12 12 12 12 13 13 12 12 12 13 13 13 12 12 14 13 12 11 11 11 12 16
2 2 2 1 3 1 2 1 1 4 4 4 2 6 4 5 7 6 7 2 2 7 7 4 4 1 7 8 1 3 5 6 9 11 10 15 24 28 33 35 32 26 26 26 23 22 20 21 22 22 23 22 22 21 21 21 21 21 21 21 21 19 18 18 17 17 16 16 15 14 14 12 12 12 13 12 11 12 11 12 12 12 12 12 13 13 12 12 12 13 12 11 10 10 9 11 14
2 3 1 1 1 1 2 0 1 3 6 4 3 5 4 9 9 8 5 5 7 9 9 6 7 6 5 4 3 3 5 8 10 11 14 20 27 28 33 34 30 29 29 27 24 22 20 21 21 22 22 22 22 20 21 20 20 21 21 21 21 19 18 18 17 17 16 16 15 14 13 13 13 13 13 13 13 12 12 12 12 12 12 11 11 12 11 11 11 11 10 9 9 9 9 10 11
5 5 2 2 2 1 3 2 4 5 6 5 5 6 5 11 10 6 4 4 6 5 9 8 10 9 4 2 3 6 7 13 11 14 22 27 29 30 34 33 30 31 28 25 24 22 20 20 21 22 22 22 22 21 20 20 20 20 20 21 21 19 18 18 17 16 16 16 15 14 13 13 13 14 14 14 13 12 12 13 12 12 12 10 10 10 10 9 9 8 7 7 7 8 8 8 9
5 2 1 3 2 2 2 2 4 5 5 4 6 7 8 11 9 5 4 2 2 2 7 8 9 9 2 3 4 6 14 20 21 24 29 29 29 29 32 30 29 30 27 26 23 21 20 20 22 22 22 23 22 21 21 21 20 20 21 21 21 19 18 18 17 17 17 16 14 14 13 13 13 14 13 14 13 13 12 12 12 12 11 10 9 8 7 8 7 6 6 6 6 7 7 8 8
2 0 1 3 1 2 0 3 5 4 4 7 7 9 10 9 10 8 5 1 4 3 6 6 4 8 4 8 8 4 11 25 32 30 28 28 29 28 29 29 30 30 27 25 23 22 21 21 21 21 23 23 22 22 22 22 21 20 21 21 21 20 19 18 17 17 17 15 15 14 14 13 13 13 13 13 13 13 12 11 11 10 10 9 9 8 7 6 5 5 7 7 6 7 6 7 8
2 1 1 2 2 1 3 4 5 4 5 7 8 12 12 9 10 10 5 4 7 5 3 2 6 9 9 10 7 3 11 27 33 28 28 29 30 29 27 26 28 30 29 25 23 22 21 20 20 21 22 22 22 22 23 23 21 21 21 21 21 20 19 18 18 17 16 16 15 15 13 13 12 12 12 12 12 12 12 12 11 9 9 9 9 9 7 7 6 7 7 7 7 7 6 7 8
2 2 1 2 2 1 4 4 4 5 7 7 9 13 13 11 8 5 3 7 7 7 5 4 9 11 11 7 4 7 16 25 28 26 28 31 30 27 24 24 27 30 30 27 24 22 21 20 19 20 21 22 22 22 23 23 22 22 22 22 21 20 19 19 19 18 17 16 15 14 13 12 11 11 11 11 12 12 12 11 10 9 9 8 8 8 8 7 8 8 8 7 7 6 6 7 8
2 2 3 3 1 3 4 3 5 7 8 7 9 11 6 5 3 0 5 7 5 6 5 3 8 9 9 5 3 8 15 18 22 25 28 31 29 23 21 24 26 28 29 27 24 23 21 20 19 19 20 22 22 22 23 23 22 22 22 22 21 20 20 19 19 17 17 15 14 13 12 11 11 10 10 10 11 11 11 11 10 9 8 8 8 8 8 8 8 8 8 7 6 6 6 7 6
2 2 4 1 3 3 4 3 5 6 7 6 6 8 3 6 5 4 6 7 6 5 2 4 10 7 7 4 4 6 9 12 20 24 27 28 23 20 20 22 23 24 26 27 25 23 22 21 20 19 20 21 21 22 22 22 22 22 22 22 21 20 20 19 18 17 16 15 13 12 11 10 9 9 8 8 9 10 11 10 10 9 8 8 7 8 8 8 7 7 7 6 6 5 6 6 6
3 2 4 1 2 2 5 2 4 4 5 7 5 7 5 3 6 6 7 7 2 4 4 8 11 10 7 5 5 4 6 13 22 25 25 23 20 19 17 17 21 21 21 24 25 23 22 21 20 20 20 20 20 21 21 21 21 21 22 21 20 19 19 18 17 16 15 14 14 12 11 10 9 8 8 8 9 10 10 10 10 9 8 7 7 7 6 7 7 6 6 5 5 5 5 6 5
5 1 4 1 3 3 4 3 4 3 4 7 5 4 4 3 1 3 7 7 3 3 8 6 5 7 8 8 7 8 12 19 25 27 24 22 22 22 19 18 21 20 17 19 22 22 21 20 20 20 19 20 20 20 19 20 20 20 21 20 20 19 18 18 16 16 15 14 13 13 12 10 10 9 8 8 9 9 9 9 9 9 8 7 6 7 6 6 6 6 6 5 5 4 4 5 5
4 1 2 1 3 3 4 4 1 1 5 6 6 3 5 6 2 4 2 7 3 2 5 3 2 3 10 9 10 16 21 26 29 29 26 25 24 23 25 25 23 20 17 16 18 20 19 19 19 18 18 18 18 19 19 19 20 19 19 19 19 18 18 17 16 15 15 14 13 13 12 11 11 10 9 8 9 9 8 8 8 7 7 6 6 6 7 6 6 6 6 5 5 4 4 5 5
1 2 1 3 4 5 4 3 1 0 6 7 10 6 5 5 5 3 5 8 7 3 5 3 3 4 9 10 20 27 27 29 31 29 27 25 21 20 23 25 23 21 18 15 15 18 18 18 18 17 17 16 17 17 18 18 19 18 18 18 17 17 17 16 16 15 14 14 13 13 13 12 12 11 10 9 9 9 8 8 7 7 6 6 5 5 6 6 7 7 6 6 5 4 4 5 5
2 2 3 4 4 5 3 2 1 2 6 10 12 7 4 2 4 2 7 9 8 9 7 7 10 10 13 20 30 31 30 30 28 27 24 21 18 17 17 19 21 22 21 18 15 16 17 17 17 17 16 16 16 16 17 17 17 17 17 17 16 16 15 15 15 14 14 14 14 13 13 13 13 12 10 10 10 9 8 7 7 6 6 5 5 4 5 6 7 7 7 6 6 5 4 5 5
3 3 3 5 5 4 1 2 4 3 6 10 10 6 3 1 2 2 5 4 8 11 6 9 14 13 15 21 27 27 27 26 25 26 22 19 18 16 16 17 18 17 15 15 15 15 16 17 17 17 17 16 16 16 16 17 17 17 17 17 16 16 15 15 15 15 15 14 14 13 14 13 13 12 11 9 9 9 8 7 6 6 6 6 5 4 5 6 7 8 8 6 6 6 5 4 4
2 3 4 5 5 5 4 4 6 5 7 7 8 5 5 3 3 2 4 5 7 10 7 8 12 13 14 15 19 22 21 20 22 24 21 19 19 18 18 18 18 16 12 11 14 15 16 17 16 17 17 17 17 17 17 17 17 17 17 17 16 16 16 15 15 14 14 14 14 13 14 13 12 12 10 9 8 8 8 7 7 6 6 6 5 5 5 6 7 8 9 7 7 7 6 5 4
2 4 5 6 5 6 6 7 7 7 7 4 4 5 6 6 3 1 4 5 3 7 10 12 15 16 16 14 15 17 16 15 16 18 19 19 18 19 20 19 20 21 19 16 15 15 16 17 17 17 17 17 18 18 19 18 18 18 17 17 16 17 16 16 15 14 14 14 13 13 13 13 13 12 11 10 9 9 9 8 8 7 7 6 5 4 5 6 7 8 9 9 8 8 7 7 5
2 4 6 7 6 6 7 8 7 6 7 5 1 3 3 6 5 3 1 2 4 6 8 15 19 19 19 16 14 14 13 11 11 14 17 18 18 20 22 22 22 23 23 22 20 18 18 19 18 18 18 18 18 19 19 19 19 18 18 18 17 17 16 16 15 14 14 14 14 14 13 12 13 13 11 10 11 11 11 10 9 8 7 6 6 5 5 5 6 7 8 9 8 8 7 6 5
3 6 6 8 8 7 8 7 5 4 6 7 2 1 1 4 6 5 4 2 5 6 10 15 16 17 19 17 14 13 12 9 9 13 16 18 19 21 24 26 26 27 27 25 24 22 21 21 21 20 19 20 19 18 18 18 19 19 18 18 18 17 17 16 15 14 14 14 15 15 14 13 13 13 12 11 12 13 11 10 10 9 9 8 7 6 6 5 4 6 7 8 7 7 7 5 4
5 6 7 9 9 9 10 7 5 6 6 7 3 1 2 2 3 3 5 2 7 13 14 17 16 16 18 16 14 12 11 9 10 13 17 20 22 24 27 28 28 28 29 27 26 26 23 22 23 22 21 21 20 19 19 19 19 19 19 18 18 18 17 16 16 15 15 15 16 16 15 14 13 13 13 13 14 13 12 11 11 11 10 9 8 7 7 5 4 5 6 8 8 7 5 4 3
5 7 9 8 8 9 10 8 6 7 6 6 4 1 4 5 2 3 4 7 14 16 16 17 17 16 15 14 13 11 10 10 11 13 15 17 21 24 26 29 29 27 28 28 27 26 24 24 24 24 23 22 21 20 20 19 19 20 19 18 19 18 17 17 16 16 16 16 16 16 16 15 15 14 14 14 15 14 13 13 12 12 12 10 9 8 7 6 6 6 7 8 9 7 5 4 3
6 8 9 8 10 10 9 7 7 7 4 5 5 4 6 6 3 4 3 11 15 15 16 16 17 17 14 13 12 12 11 11 12 14 16 17 19 20 24 29 29 29 29 28 28 26 25 25 24 24 23 22 22 21 20 20 20 20 20 18 18 18 18 18 18 18 18 17 15 15 16 16 16 15 15 15 15 14 13 13 13 13 12 12 12 11 8 7 7 8 7 9 9 8 7 5 5
5 7 8 9 11 10 8 8 7 5 4 6 5 5 7 4 3 2 1 10 16 16 16 14 15 15 13 12 11 11 12 13 16 17 16 15 15 18 23 27 29 30 27 27 29 26 25 25 23 23 23 22 21 20 20 20 18 19 19 17 16 16 17 19 19 19 19 17 16 15 17 17 17 16 15 16 15 12 12 12 13 13 13 14 14 12 10 9 9 9 8 9 8 7 7 7 8
6 7 7 9 8 6 5 4 6 3 4 6 5 5 5 2 3 8 8 10 16 18 15 13 14 12 12 12 9 8 9 13 18 17 15 15 18 21 24 26 29 28 25 26 27 25 25 25 23 22 22 21 19 19 18 18 17 17 17 16 16 15 16 18 17 17 17 17 17 16 17 18 17 16 16 15 14 12 12 12 11 11 13 14 14 13 12 12 10 9 9 10 8 8 9 8 9
7 6 4 7 5 5 6 3 3 1 3 3 2 4 6 3 2 12 14 10 13 17 14 12 12 11 10 10 8 7 8 12 15 15 17 20 22 25 27 28 29 27 25 25 24 24 25 24 23 21 20 19 18 18 17 16 15 15 15 15 15 14 14 16 16 15 15 16 16 16 18 17 16 16 15 14 14 13 12 13 12 11 12 14 14 13 13 12 10 9 10 11 10 10 10 9 10
6 4 1 4 6 6 6 2 3 2 3 2 4 3 7 5 3 13 16 14 15 15 14 12 11 10 10 9 8 7 8 11 13 16 21 24 25 28 29 29 29 27 25 24 23 24 24 23 23 20 18 17 16 16 15 14 14 13 12 11 11 11 12 14 14 14 13 14 16 16 17 16 16 17 16 15 15 14 13 14 14 12 12 14 14 14 13 12 11 10 12 13 12 10 9 8 9
4 4 2 3 3 5 4 3 4 4 4 5 6 3 9 7 4 15 16 17 18 15 13 13 11 10 9 8 9 8 9 11 16 19 24 25 27 29 29 28 27 26 25 25 24 23 24 23 22 21 18 16 15 14 13 13 14 12 10 8 9 10 10 13 14 13 13 14 14 14 15 16 17 18 18 17 15 14 14 15 15 13 13 14 14 14 13 12 12 12 12 13 13 11 10 9 9
3 2 4 4 1 5 6 5 6 6 4 6 7 4 7 8 6 16 15 15 17 15 12 11 12 11 10 8 9 9 8 11 16 19 23 24 27 27 25 23 22 24 27 27 25 22 23 23 22 22 20 19 17 15 13 13 14 12 10 8 8 8 10 13 14 14 13 13 13 13 14 15 17 18 18 17 15 14 15 14 13 12 12 13 14 15 14 13 13 12 12 13 14 12 11 10 9
4 1 3 4 2 5 6 6 6 8 5 3 7 5 3 6 5 15 15 15 16 14 11 11 12 11 10 9 8 9 8 9 11 15 20 21 24 25 21 18 21 26 28 29 27 23 23 22 22 23 23 21 18 15 14 14 14 13 12 10 8 7 9 11 12 12 11 11 12 12 13 14 15 16 17 16 15 15 14 13 12 12 12 13 13 13 15 15 13 12 11 13 15 13 11 11 11
4 2 1 4 4 4 5 8 7 7 7 6 8 7 3 5 7 16 14 15 15 13 12 12 12 10 9 9 8 9 9 10 9 12 18 19 21 21 16 17 23 28 28 29 29 25 25 24 23 25 24 21 18 16 15 15 15 14 12 11 9 7 7 8 9 10 10 10 11 11 11 13 14 15 14 14 15 14 12 11 13 14 14 13 12 12 14 15 13 11 10 13 15 14 13 12 11
3 2 2 3 3 4 6 8 7 7 9 8 8 7 5 4 8 16 14 15 15 14 14 13 12 12 10 9 9 9 8 9 10 13 18 20 22 19 15 21 27 30 29 30 31 29 29 27 26 26 25 22 19 17 16 15 15 14 13 13 12 11 11 9 8 8 8 8 8 8 9 10 12 12 11 11 12 11 11 12 14 14 13 12 11 12 14 14 13 10 11 15 16 14 12 11 10
6 5 4 4 4 5 7 11 11 7 8 8 10 8 5 4 5 10 11 13 13 12 12 11 11 10 10 9 8 8 8 8 9 14 19 22 23 18 17 23 30 33 33 34 34 32 31 30 28 26 24 22 20 20 19 18 17 16 16 15 15 15 15 14 12 10 8 6 5 5 6 7 8 9 9 9 9 8 10 11 12 12 11 10 9 12 13 12 12 11 12 15 15 13 12 10 9
7 3 2 3 2 5 8 9 8 6 9 6 9 7 5 6 3 6 5 4 7 11 10 9 10 9 10 10 10 10 9 8 7 12 18 22 21 17 18 25 30 34 35 35 34 32 31 29 26 24 23 23 23 23 22 21 20 20 20 19 17 16 16 15 13 12 10 8 7 5 4 3 4 5 5 6 6 7 7 8 9 9 8 7 7 10 12 12 11 11 13 14 14 14 13 11 10
5 1 1 4 1 4 9 6 6 3 7 0 2 7 3 6 3 4 8 5 6 12 12 11 12 11 10 11 12 11 8 5 5 7 13 18 16 16 21 26 30 33 33 33 32 29 27 24 23 24 25 24 23 22 22 22 20 21 24 23 21 18 16 14 13 12 10 9 8 5 3 1 2 3 3 3 3 4 5 6 6 5 5 6 7 10 12 12 12 12 14 14 13 13 12 10 9
1 1 1 4 3 4 8 6 7 6 5 1 1 5 5 6 4 4 11 12 11 12 15 15 15 12 10 10 11 10 8 5 6 7 10 14 13 16 23 25 28 32 31 31 30 27 25 23 23 26 26 25 23 22 22 21 20 20 23 25 24 21 18 16 15 13 11 10 8 6 5 3 2 3 4 4 3 2 3 4 4 4 4 5 7 11 13 14 13 14 15 15 13 13 11 9 8
0 0 1 3 2 1 4 6 7 5 3 2 2 2 3 4 3 3 7 10 9 9 11 12 13 14 13 13 12 12 12 9 10 9 9 11 13 18 23 23 27 30 30 30 29 27 26 24 25 27 27 25 24 24 22 20 20 21 24 26 25 22 20 19 17 15 12 11 9 7 5 5 4 3 4 5 3 0 2 4 4 4 3 3 5 10 13 14 14 14 14 14 13 12 10 8 7
3 2 3 3 2 2 5 6 7 6 4 3 5 4 4 3 3 2 4 2 7 7 8 7 9 11 11 12 13 14 14 13 13 12 10 10 14 18 22 24 26 28 29 31 30 28 27 25 26 27 27 25 25 24 22 19 21 24 26 25 22 21 20 19 18 16 14 12 11 9 7 7 7 6 6 8 6 2 2 3 3 3 3 3 3 5 9 12 13 13 12 11 11 10 8 7 7
4 3 6 6 5 5 6 5 5 5 5 2 4 3 5 5 3 3 3 2 7 6 9 12 11 7 7 9 11 12 12 12 13 14 12 11 13 17 20 24 25 26 28 31 30 28 27 26 26 27 27 26 24 23 22 21 22 26 27 25 22 21 19 17 17 17 16 15 13 11 10 10 11 10 8 8 7 6 4 3 3 3 4 4 4 4 5 8 10 9 9 9 7 7 7 7 7
2 4 6 6 6 4 5 4 1 3 2 4 3 4 4 6 5 5 2 4 8 7 8 10 9 7 8 9 10 11 10 10 10 10 11 12 14 16 18 23 26 27 29 31 31 29 29 28 26 28 28 25 23 22 23 24 25 26 26 23 22 21 19 17 17 18 18 16 15 13 13 13 12 10 9 9 8 8 7 6 5 4 6 6 5 6 8 8 8 6 5 6 5 6 7 8 8
3 6 6 5 4 4 3 3 2 2 3 4 4 5 2 4 5 6 2 3 5 10 9 8 9 10 10 10 10 11 11 11 10 10 11 11 14 16 19 24 27 29 30 31 32 31 31 30 28 28 27 24 23 23 25 26 26 27 25 22 20 19 19 19 18 18 17 17 15 14 13 13 12 10 10 10 10 10 11 9 8 7 9 9 9 9 10 10 10 8 7 7 6 5 5 6 8
7 7 5 4 4 6 5 6 3 1 1 4 6 3 3 4 6 5 4 3 1 8 11 9 11 13 13 12 12 11 12 12 12 12 11 11 14 19 22 25 26 29 32 34 34 34 33 31 30 29 27 25 26 25 26 26 25 26 24 22 21 20 20 20 20 18 18 17 16 14 13 12 12 11 10 9 10 11 12 11 10 11 12 13 12 12 12 12 12 10 10 10 9 8 6 6 8
7 3 3 4 1 3 4 5 3 3 4 3 6 1 2 4 5 5 4 2 3 6 5 5 9 14 14 12 11 10 9 9 10 10 10 12 16 19 21 23 26 29 33 34 34 34 34 33 33 31 27 27 28 27 26 26 24 24 24 25 24 23 23 22 21 20 19 18 17 15 13 12 12 12 11 11 11 12 12 11 10 10 12 13 14 14 14 14 13 11 11 12 12 12 10 10 9
4 1 2 3 4 4 4 3 4 4 2 5 6 1 4 1 5 4 2 1 4 2 2 2 5 11 11 9 9 8 7 6 7 7 6 7 11 13 15 18 22 26 28 29 30 32 33 33 34 32 28 29 30 28 28 27 24 23 25 27 27 27 27 25 23 22 21 20 18 17 15 14 13 14 13 13 12 13 11 9 8 9 11 12 12 12 13 13 12 12 12 12 12 12 12 11 11
2 2 2 2 4 5 5 4 4 3 2 6 6 1 6 1 4 5 4 4 6 2 6 3 5 10 8 7 7 6 6 6 6 6 6 7 8 10 13 15 18 22 23 24 27 30 31 33 33 30 26 28 30 28 28 28 25 24 26 28 29 29 29 27 26 25 23 22 20 18 18 17 15 15 14 14 13 12 10 9 9 10 11 11 11 11 10 11 10 10 11 12 11 11 11 10 10
5 3 4 4 1 4 3 4 2 1 3 4 5 1 3 2 6 6 6 7 7 2 7 6 8 11 8 8 8 7 7 7 7 7 6 6 6 9 14 16 18 21 22 23 25 26 27 28 29 28 23 26 31 29 28 28 25 26 28 28 29 30 29 27 27 26 24 23 21 21 20 19 17 16 15 16 15 13 11 11 11 11 11 11 10 10 9 8 9 9 10 11 11 10 9 8 9
4 4 3 4 3 3 1 3 1 1 4 4 4 1 0 4 4 6 6 7 4 3 6 6 10 11 9 9 9 8 7 7 7 7 7 6 5 8 13 17 19 20 20 20 19 19 21 22 24 25 22 26 31 28 26 25 26 28 27 26 29 30 29 27 27 27 25 23 22 22 22 20 18 17 16 17 17 15 14 13 13 11 10 10 9 9 9 9 10 11 11 11 11 10 8 9 10
3 5 5 4 4 4 3 3 2 3 3 4 4 1 2 2 4 6 4 4 2 9 7 7 10 10 9 9 8 8 8 7 7 6 7 6 7 9 10 13 17 18 18 18 17 18 20 21 21 21 19 19 22 22 21 22 26 28 25 26 29 29 28 27 27 27 25 23 23 23 21 20 19 18 17 18 17 16 16 14 14 13 11 10 10 9 9 9 10 11 11 11 11 9 9 10 11
3 2 5 1 4 5 2 2 5 4 0 2 2 1 3 4 5 5 2 3 6 11 9 11 12 9 10 9 8 8 7 6 7 7 7 6 8 11 11 11 14 17 19 20 21 22 22 22 23 22 20 22 27 29 27 26 29 28 25 26 29 28 28 27 27 28 25 23 23 23 21 20 19 19 18 17 16 15 14 14 15 14 12 10 9 9 8 8 9 11 12 11 11 10 10 11 11
2 2 1 4 4 7 4 1 1 4 3 2 2 1 4 3 3 5 6 4 6 11 10 11 11 10 11 9 7 8 7 7 7 7 7 6 8 10 10 13 17 20 21 22 24 26 27 27 28 28 26 27 33 35 34 32 31 28 25 26 29 28 28 28 28 29 27 24 24 22 21 21 20 19 19 18 17 15 14 14 15 15 13 11 10 9 7 6 7 9 10 10 11 10 10 11 10
3 1 3 1 3 4 4 1 2 4 2 4 2 2 3 3 2 5 7 4 2 7 9 9 10 10 11 9 8 8 8 8 7 7 8 7 9 11 12 14 18 22 23 24 25 26 28 29 31 32 29 27 30 32 33 32 31 29 27 27 28 29 30 31 29 29 28 27 26 24 23 23 22 20 20 19 18 15 13 13 14 14 14 12 11 9 8 6 6 8 8 8 9 9 9 10 10
4 4 3 3 3 1 1 2 1 1 1 3 2 1 1 1 1 5 6 4 3 1 5 7 9 10 10 9 9 9 9 8 8 8 8 7 9 13 14 14 16 20 23 24 25 24 25 27 30 31 30 28 28 29 31 31 31 32 30 28 28 29 31 33 31 29 30 30 29 27 25 24 23 22 20 19 18 16 13 13 13 13 14 14 12 9 7 6 6 7 7 6 7 6 6 8 8
3 1 2 2 3 3 2 2 3 3 2 3 2 3 1 2 2 5 6 5 3 3 3 4 5 5 6 7 7 7 8 8 8 8 8 8 11 14 15 14 15 17 19 22 22 20 20 24 26 27 26 27 28 28 30 31 32 33 32 30 29 28 31 35 34 31 31 32 32 31 28 26 25 24 22 21 19 17 15 14 14 13 13 14 12 10 8 7 6 5 5 6 6 6 6 6 6
4 3 3 2 1 2 1 1 2 3 4 2 1 2 4 4 2 4 5 2 3 6 5 5 4 4 4 5 6 6 7 7 7 8 8 8 11 14 14 14 14 14 15 17 17 15 15 18 20 22 23 26 27 28 30 32 33 34 33 33 32 29 30 36 36 33 33 33 33 33 30 28 27 26 24 22 21 19 17 15 15 14 13 13 12 11 10 10 9 7 7 7 6 6 7 6 5
1 1 2 1 3 3 3 1 2 1 4 3 4 2 4 5 3 5 4 2 6 8 8 6 4 5 5 4 5 6 6 7 7 8 8 8 10 13 14 14 15 13 12 13 13 13 14 16 18 19 21 23 26 28 31 32 32 31 30 30 29 26 29 36 38 34 33 34 35 35 32 30 29 27 25 23 21 19 18 16 15 14 13 12 12 12 11 11 12 11 10 9 9 9 9 8 7
Wind_Direction
298 111 65 2 332 342 348 88 82 313 91 253 255 215 262 241 263 319 304 298 84 1 53 67 61 81 95 105 114 96 47 36 153 130 184 118 129 146 150 149 150 151 154 158 162 164 166 165 162 157 151 148 147 147 148 149 149 147 143 139 136 134 130 127 127 125 126 123 121 121 120 118 116 114 112 111 110 108 106 104 103 103 104 105 105 104 101 96 97 103 105 103 97 94 100 106 107
208 133 7 350 333 18 272 105 97 326 66 289 257 182 257 292 297 278 262 165 101 172 109 83 78 85 105 118 121 89 48 29 67 96 91 97 111 119 126 137 145 153 156 159 163 164 166 163 161 156 150 148 145 145 146 148 149 147 145 141 138 136 132 130 129 128 130 129 127 124 122 119 117 116 114 115 114 112 107 104 103 102 102 104 104 104 103 98 98 102 105 104 94 87 93 105 112
235 291 340 360 351 96 28 47 99 119 96 252 263 231 268 304 266 232 228 144 134 153 99 74 68 64 99 98 62 62 78 49 71 89 87 92 95 101 122 140 149 157 157 158 161 160 160 158 158 152 148 148 145 144 144 146 147 147 146 143 141 138 135 133 132 132 133 133 131 128 126 121 119 120 121 120 119 118 111 108 104 102 102 103 104 105 106 102 101 101 100 98 94 88 86 102 117
262 306 340 23 46 43 56 70 143 131 165 235 271 267 257 292 283 239 228 183 163 148 101 75 57 3 56 81 57 60 98 88 80 97 92 93 109 127 143 154 154 156 155 155 158 157 156 155 156 150 148 147 144 144 144 145 145 147 147 145 143 141 138 136 136 136 136 135 133 132 130 127 125 123 124 125 124 124 119 116 111 110 111 111 108 109 110 106 103 102 102 97 96 96 84 102 122
290 328 311 62 82 9 91 111 144 138 211 214 231 256 262 298 310 280 266 285 135 113 110 108 96 13 61 75 67 91 108 103 86 92 95 118 138 146 153 154 149 150 155 158 159 159 157 157 154 148 145 142 142 143 144 144 144 146 147 147 145 144 141 138 139 139 140 138 135 134 134 132 130 126 125 125 126 127 125 122 118 118 120 121 116 116 118 110 106 102 103 101 102 105 91 107 125
347 11 347 132 119 224 105 182 226 224 233 185 223 260 300 300 297 274 276 31 54 97 107 100 118 124 88 58 40 82 147 124 94 97 115 138 150 154 154 150 148 153 158 159 160 159 155 155 150 143 141 139 141 142 143 144 144 145 146 148 146 145 143 141 141 141 142 140 138 138 137 134 130 128 126 125 124 124 125 125 125 126 125 125 121 126 131 121 113 108 102 100 103 106 97 111 128
1 16 67 75 332 12 106 195 218 247 242 183 234 268 281 284 288 281 282 63 60 80 99 114 130 113 90 112 53 33 97 122 118 129 137 145 154 156 153 149 150 153 156 158 157 155 152 152 147 142 140 139 141 141 143 143 144 145 146 149 148 147 145 143 142 142 144 142 142 141 138 134 130 129 128 126 124 123 124 127 129 131 131 131 130 134 139 128 118 109 101 99 99 100 96 106 130
3 5 100 85 19 14 111 239 237 232 247 225 243 260 256 270 288 302 284 123 97 44 106 143 131 98 36 97 95 38 83 118 128 135 141 145 152 153 150 148 149 152 155 157 154 151 150 152 148 144 141 140 142 142 142 142 144 145 146 149 149 149 147 146 144 144 146 145 145 142 139 134 132 130 129 128 125 125 125 128 129 131 134 136 139 139 138 131 120 106 101 102 97 95 92 91 119
17 101 17 86 89 357 308 267 259 241 262 270 269 265 255 262 277 260 247 81 108 116 134 178 116 101 117 88 100 63 90 121 128 135 143 146 150 149 148 151 153 152 153 154 151 149 150 153 150 146 142 141 142 140 140 141 143 144 147 150 150 151 149 148 146 147 148 147 146 143 140 136 135 131 129 129 127 127 126 129 130 131 134 137 141 143 146 141 131 116 110 106 99 92 89 77 104
24 153 100 93 91 344 297 264 255 270 269 269 269 266 259 245 251 238 211 98 124 130 128 122 74 110 124 99 96 99 120 128 128 135 145 147 149 148 150 155 156 153 153 154 152 149 149 153 151 147 143 140 140 139 140 141 143 146 148 150 152 153 151 150 148 149 149 148 147 143 140 137 135 131 130 129 128 129 129 131 133 134 133 135 138 141 146 144 133 121 114 107 102 93 83 71 93
12 313 117 91 62 227 258 262 269 283 277 287 278 270 261 229 219 232 131 108 137 135 141 87 86 112 109 98 89 119 133 131 130 138 146 146 145 145 150 155 157 156 155 154 151 148 149 152 150 146 141 139 139 139 142 143 146 147 149 151 153 154 153 152 151 150 149 149 147 143 139 137 135 133 132 130 130 131 133 134 136 137 133 133 136 136 136 136 131 121 117 113 111 101 87 76 89
56 307 76 103 180 209 224 245 282 285 284 293 281 281 270 187 143 117 92 104 143 149 181 136 125 126 95 93 98 122 126 125 132 138 143 142 139 141 147 153 157 156 154 151 148 148 150 150 147 143 139 138 138 140 144 145 147 148 149 152 153 154 153 153 151 150 150 150 148 144 141 138 136 134 134 132 132 133 134 135 135 134 128 130 134 136 136 136 132 123 124 122 120 108 94 82 81
147 211 93 139 203 204 251 241 272 287 293 281 266 287 328 95 122 169 102 97 145 181 243 124 141 120 88 107 112 123 114 120 131 133 139 138 137 138 141 145 147 148 149 150 149 150 152 149 144 139 137 138 139 141 143 145 148 149 150 151 152 153 153 153 152 151 151 149 148 146 143 141 140 138 137 135 135 137 137 135 133 133 129 130 134 137 140 140 136 130 131 127 125 113 101 88 72
185 192 118 238 259 230 262 244 265 278 287 279 276 294 322 83 164 169 105 87 109 162 98 108 129 97 100 128 117 145 132 136 134 131 134 130 130 125 118 122 130 140 148 151 151 152 152 148 144 139 139 140 140 141 143 146 148 149 150 151 152 153 153 153 153 152 151 151 150 148 146 147 147 146 143 140 141 141 139 135 134 135 134 131 133 140 144 145 144 139 133 128 125 119 112 99 70
184 202 113 190 295 284 257 216 256 287 284 276 280 307 4 356 184 77 103 106 24 131 109 120 137 95 148 166 154 169 153 146 135 130 128 126 131 124 117 123 133 143 148 150 150 153 151 147 144 142 144 143 142 143 144 147 148 149 150 151 153 154 155 156 156 154 154 154 154 152 153 155 154 154 151 147 146 144 139 136 135 138 140 137 136 141 149 153 154 149 138 131 126 123 126 112 82
177 140 94 206 256 263 250 223 224 354 281 270 291 342 46 338 360 45 53 118 122 161 108 149 248 127 167 170 147 151 148 145 135 131 130 131 136 129 131 138 143 142 145 154 152 152 149 147 147 145 147 146 146 146 146 149 150 152 152 154 155 156 158 159 158 157 158 157 157 157 158 161 161 159 158 155 150 146 143 139 140 143 145 145 142 143 151 156 160 158 144 138 131 124 128 122 100
146 110 153 240 236 230 233 226 142 223 286 309 322 345 79 337 339 44 37 82 109 77 49 61 9 95 142 132 130 138 142 142 136 132 129 128 127 122 126 132 138 140 148 161 154 150 149 150 150 148 150 151 152 150 150 153 155 157 157 158 158 160 161 161 162 161 163 161 160 161 161 165 166 164 164 163 155 150 148 147 149 150 152 150 147 147 153 157 161 163 152 145 138 131 130 130 120
122 126 185 228 225 226 200 171 253 305 311 317 314 321 88 14 322 19 60 71 78 62 50 72 57 63 101 118 129 137 142 141 135 128 124 124 123 122 122 125 134 141 154 164 157 152 151 153 155 155 156 158 160 158 157 157 161 163 163 164 163 164 165 165 166 167 169 167 165 164 164 168 168 168 171 169 162 156 155 157 158 158 158 153 152 154 158 164 165 167 162 155 149 143 144 139 132
151 159 204 231 216 238 241 208 275 297 292 302 297 303 33 28 287 12 75 101 90 80 64 81 81 81 99 116 128 137 141 138 134 128 123 126 129 129 123 122 124 131 146 150 150 156 158 158 160 164 163 165 167 166 165 165 168 170 170 172 170 170 171 172 170 172 176 172 169 167 167 170 170 172 174 174 167 164 164 164 165 164 162 157 158 162 168 174 173 175 171 170 168 162 161 149 137
191 177 228 247 227 256 277 244 256 251 262 297 297 309 20 328 294 32 120 123 105 116 125 104 104 111 115 120 129 135 135 134 133 128 122 121 126 129 128 126 124 132 137 133 149 164 166 164 166 170 171 173 175 175 176 176 177 179 179 179 178 176 177 177 175 177 179 174 171 171 171 172 175 175 172 176 177 178 180 174 172 172 169 165 165 169 178 180 180 183 184 188 189 182 172 152 135
213 176 217 239 228 256 264 248 258 262 258 255 279 340 357 313 321 60 145 118 112 159 161 143 137 134 130 132 133 131 127 128 130 125 121 120 123 127 131 134 140 147 150 152 165 172 171 173 176 177 179 181 183 185 184 185 185 185 185 186 186 183 181 179 178 180 178 175 174 175 177 178 181 178 173 181 188 191 195 190 184 183 184 181 177 180 182 184 185 188 194 198 198 195 183 162 145
248 230 231 240 235 253 260 252 257 262 269 268 293 28 317 310 344 345 92 161 209 191 166 145 142 139 135 135 131 126 127 129 132 129 126 128 130 129 129 136 146 152 155 160 169 176 178 181 184 184 186 188 191 191 190 191 192 191 190 191 190 185 184 181 180 181 178 178 180 184 186 186 184 182 181 190 197 198 201 203 197 192 198 201 197 198 191 188 193 195 200 201 200 200 192 180 172
241 267 255 252 242 243 256 257 257 252 274 280 271 148 260 18 344 328 32 271 213 140 129 128 129 130 128 128 126 130 136 137 139 138 140 140 139 137 137 141 150 157 159 160 166 175 181 183 186 189 192 194 195 194 195 197 197 198 195 194 194 191 189 187 186 185 185 187 189 193 194 193 189 186 191 202 206 202 204 209 209 207 211 214 212 209 201 200 204 204 205 198 195 194 194 200 205
204 257 262 256 242 238 248 247 251 254 254 251 225 29 350 55 325 338 48 41 122 114 115 118 120 121 120 121 124 130 134 135 138 143 150 151 149 148 146 149 156 161 161 161 166 172 178 184 186 191 197 197 196 195 198 202 201 202 199 197 198 197 194 192 193 192 195 200 201 200 198 201 202 197 201 207 207 204 208 215 216 218 221 221 218 212 207 213 214 206 197 187 183 187 199 221 220
210 239 254 254 247 242 245 237 240 256 246 234 232 290 256 215 175 88 100 106 110 115 116 116 118 114 113 117 122 128 131 131 135 143 151 156 155 150 150 154 159 165 166 165 166 170 175 182 187 194 200 198 198 197 199 205 205 204 201 201 202 202 199 194 196 201 207 210 208 204 202 209 213 211 212 209 204 203 209 218 220 221 226 228 225 221 217 217 211 200 187 180 181 188 201 212 212
220 228 248 252 255 251 253 251 241 255 245 228 248 265 260 236 130 75 118 118 113 116 116 118 119 116 119 125 133 137 138 139 143 150 155 160 160 154 156 161 165 169 171 169 167 171 177 180 186 195 200 199 198 199 202 206 207 207 205 204 206 208 205 197 196 207 215 212 208 206 207 216 221 220 219 212 204 202 209 219 222 223 229 231 227 225 225 218 206 202 197 188 190 197 199 201 209
243 247 260 249 251 250 250 263 263 273 261 229 232 259 274 270 109 87 177 127 122 118 119 124 122 125 133 137 144 145 146 152 155 156 155 163 172 168 166 168 172 174 178 175 170 174 179 180 184 193 199 199 198 201 203 205 208 210 209 209 212 213 211 205 203 214 221 215 211 213 214 221 226 225 219 211 203 203 213 219 224 229 231 228 222 219 220 216 204 208 212 199 201 209 207 208 206
284 269 273 261 263 262 244 266 281 301 283 234 210 263 291 348 126 161 162 138 129 124 127 130 125 131 137 138 145 146 151 155 157 157 159 173 183 178 174 174 176 180 187 180 171 177 183 184 184 191 199 198 198 200 201 206 209 208 209 212 214 212 212 212 212 218 224 221 219 223 225 226 226 223 218 213 206 206 214 213 216 225 225 217 212 210 212 213 208 214 212 201 212 227 226 224 212
282 266 264 280 321 305 271 268 262 215 274 251 126 322 308 309 187 154 145 137 130 125 129 132 131 135 136 142 145 149 158 157 162 168 172 180 184 180 176 176 176 180 185 175 172 182 186 187 187 191 199 197 195 196 197 202 202 200 205 213 214 207 205 209 211 214 220 223 223 223 225 225 222 220 219 219 213 208 208 204 204 209 208 204 204 205 208 213 216 214 203 200 217 227 227 229 216
286 293 226 307 351 309 273 244 259 233 234 201 102 331 278 267 164 144 141 139 134 130 139 141 139 141 142 151 149 155 164 164 177 181 180 183 184 181 175 175 175 176 177 173 177 185 186 188 188 191 196 195 192 192 193 192 192 196 201 206 207 205 204 205 206 209 213 219 222 220 221 221 218 219 219 220 217 208 204 202 200 198 197 200 202 204 207 214 215 205 197 200 209 211 208 210 202
302 323 343 359 355 281 277 226 256 267 235 138 120 244 257 267 164 154 154 147 145 143 152 149 143 147 149 158 155 162 173 180 189 184 181 182 180 179 175 175 177 178 179 178 178 179 182 185 185 188 187 185 183 181 183 184 187 189 186 185 193 204 209 205 201 204 208 213 218 221 221 221 220 220 220 221 219 211 208 207 204 198 197 204 207 206 208 213 211 203 197 199 201 200 198 192 187
335 341 319 345 218 268 299 259 219 227 248 125 141 227 258 271 194 165 159 150 149 146 154 149 143 150 155 164 163 165 177 188 193 187 182 180 177 178 179 180 182 180 178 176 174 168 170 177 181 185 181 177 176 173 173 178 181 176 169 169 179 197 204 202 199 200 205 207 213 218 218 221 223 222 222 222 220 214 213 211 207 202 200 207 212 212 211 211 210 205 202 202 200 199 198 187 179
343 66 269 290 261 292 318 291 237 213 237 150 181 218 267 286 190 160 155 151 149 145 153 150 147 157 159 166 169 168 176 186 197 193 184 179 178 180 181 188 191 186 178 175 175 166 163 170 175 177 175 173 172 166 163 166 168 165 164 163 164 181 194 202 204 203 206 209 217 221 221 225 226 221 220 222 219 211 209 210 212 210 206 209 212 210 209 210 211 207 202 204 202 196 191 181 171
315 17 280 260 239 269 291 293 274 208 203 205 214 211 245 296 148 148 155 155 149 148 156 155 155 160 161 168 173 174 177 183 196 189 179 175 177 178 174 174 180 182 176 171 172 164 160 164 163 162 160 159 158 156 155 153 153 155 159 156 148 151 169 195 205 207 212 215 222 224 223 226 225 217 214 218 214 206 207 212 214 214 208 206 206 204 203 204 205 202 193 191 194 191 184 176 169
248 284 290 282 259 248 251 269 267 199 189 199 210 212 242 285 143 147 162 160 154 158 160 158 160 162 165 170 174 177 179 189 196 179 170 170 172 171 164 160 160 163 161 157 159 157 154 156 155 153 150 150 151 151 150 148 148 154 158 150 141 138 141 153 165 183 198 204 211 215 215 219 224 219 212 213 208 202 208 213 211 211 204 197 199 197 196 198 196 189 182 177 178 180 177 172 166
223 239 206 231 267 263 248 259 256 197 166 189 200 198 201 220 150 143 166 168 157 155 153 152 159 162 165 168 173 175 183 202 200 175 169 170 170 166 164 161 151 148 149 149 152 153 152 152 152 151 152 153 152 149 148 150 159 166 165 157 147 141 138 140 142 146 150 152 163 184 201 210 223 223 219 224 220 209 209 211 209 208 202 195 196 194 190 193 189 179 177 174 171 167 163 164 163
237 237 203 238 259 289 289 288 277 159 140 197 199 165 170 214 185 125 143 154 145 144 146 154 160 167 170 172 174 174 186 204 195 178 174 172 172 169 169 163 149 145 147 148 151 152 153 153 152 151 154 157 155 154 155 157 165 169 170 169 160 148 143 142 139 139 135 128 128 134 164 193 218 217 216 226 229 228 223 217 212 207 204 202 201 196 192 191 187 181 177 173 170 163 154 153 158
239 152 18 312 326 288 293 305 330 79 114 212 145 114 153 234 235 139 130 135 171 160 155 163 169 177 179 173 172 174 181 183 172 183 185 179 175 172 171 162 149 146 148 151 152 152 153 154 154 154 157 159 161 162 164 164 166 165 165 168 164 154 151 148 143 142 140 135 132 131 140 163 238 221 216 211 211 229 228 217 207 200 205 210 203 198 197 194 188 184 180 174 169 166 162 156 159
212 79 51 310 293 294 301 313 348 27 91 12 158 134 188 231 245 193 160 165 188 179 167 170 173 175 179 174 168 170 170 161 170 185 193 187 175 168 170 162 152 151 152 154 154 154 155 156 157 159 160 164 167 167 167 165 162 162 162 161 160 155 153 153 149 148 149 147 145 149 162 169 202 225 227 213 197 215 223 207 187 179 187 203 207 201 200 200 192 185 184 182 173 166 168 167 175
105 357 58 284 278 328 302 311 342 12 84 146 152 131 242 267 304 243 194 173 174 185 181 175 175 174 177 177 169 169 171 169 176 182 190 182 168 168 171 163 156 155 154 155 156 157 160 161 162 165 166 170 172 170 170 167 160 158 156 156 155 151 150 152 150 150 153 156 156 159 168 170 173 202 213 207 208 234 216 193 173 166 170 185 213 212 208 206 198 188 185 189 184 170 165 169 182
294 226 193 224 203 187 245 299 339 352 10 78 84 31 321 334 23 304 286 174 158 180 185 188 201 188 174 173 171 174 173 170 174 177 183 178 168 171 171 165 160 158 158 159 161 163 165 167 169 170 171 174 176 174 175 175 163 153 148 147 147 143 145 150 151 152 152 152 156 159 164 163 151 143 167 191 201 182 153 178 167 146 148 154 183 207 206 203 198 193 190 193 193 184 175 169 175
314 256 213 210 179 201 255 304 12 25 349 332 79 44 297 322 352 283 324 131 175 189 186 195 206 192 175 176 177 180 173 170 176 175 178 180 171 168 169 167 163 163 164 165 166 169 172 173 173 173 174 177 180 182 184 181 167 157 151 149 146 142 143 149 155 157 156 153 151 150 150 152 147 134 136 162 183 180 150 149 164 159 157 146 130 135 160 180 188 196 206 208 210 213 203 186 182
314 250 208 201 167 174 245 259 89 89 274 280 88 125 254 317 321 285 335 131 183 206 211 210 199 183 190 190 184 182 172 167 175 175 176 179 171 165 169 172 170 169 169 169 171 173 176 177 175 176 178 180 183 184 185 179 168 163 161 160 158 152 149 153 157 155 153 151 147 146 144 144 149 144 131 130 150 163 148 132 134 149 160 152 138 130 129 143 157 167 186 197 207 217 213 203 194
231 242 198 186 144 130 164 150 140 208 240 314 11 102 151 300 290 280 326 96 172 198 212 224 204 193 194 195 192 184 171 165 171 180 182 181 177 172 174 177 175 173 172 172 174 176 179 179 177 179 181 180 178 176 176 175 168 165 165 165 164 161 156 154 156 154 152 151 148 146 143 140 143 146 139 128 132 147 145 132 121 120 133 139 142 139 129 129 133 135 144 158 170 184 202 207 192
241 237 209 218 169 147 136 109 114 283 352 323 321 56 98 270 281 311 352 37 278 213 211 214 203 197 194 194 194 184 176 174 174 179 180 182 185 180 178 179 177 176 176 178 179 180 182 180 178 180 181 177 173 171 171 170 167 165 166 167 165 164 161 157 158 158 157 157 151 148 148 144 143 144 142 133 131 140 140 133 127 124 126 129 134 135 132 131 130 129 133 137 139 140 147 161 158
248 231 232 266 209 128 103 94 103 43 45 260 277 345 104 268 287 321 360 39 290 247 230 234 201 190 192 192 188 179 174 173 174 178 179 183 189 187 181 177 177 179 181 182 182 182 182 180 179 181 181 176 172 170 168 166 164 166 169 169 166 165 163 161 161 160 160 161 155 152 154 153 151 149 144 136 132 135 134 130 130 130 131 130 130 130 130 131 129 126 125 126 128 127 125 125 123
251 316 306 331 359 23 56 71 88 66 4 254 259 189 121 294 286 274 276 249 265 231 117 296 194 171 176 176 170 164 155 160 167 162 151 159 176 182 177 173 176 180 181 181 181 182 181 181 180 180 179 175 172 170 169 167 166 171 173 171 168 166 165 164 164 164 165 165 160 156 154 151 149 149 148 142 135 136 138 136 131 131 137 138 135 133 133 133 132 130 128 128 131 130 124 119 112
63 48 75 60 347 3 25 360 43 88 257 263 261 163 108 128 264 259 270 287 289 219 142 171 158 143 144 140 138 136 134 137 134 124 117 129 145 156 162 167 175 178 178 179 181 182 181 180 179 175 172 172 170 171 173 171 170 176 177 173 170 168 168 167 166 167 170 168 162 157 153 149 146 146 149 148 142 145 151 146 132 125 129 134 135 136 137 141 144 143 142 140 138 136 131 126 119
75 91 81 89 345 10 20 316 356 157 241 251 255 307 93 220 244 254 280 299 297 238 150 148 129 125 123 119 120 118 118 115 107 111 117 124 134 151 161 167 176 180 180 180 180 179 177 177 175 168 167 174 176 178 179 174 174 176 175 174 173 171 172 172 171 171 173 171 166 162 158 155 152 151 152 153 151 153 156 148 136 126 120 121 124 127 128 135 141 141 145 146 144 143 142 141 133
117 156 120 114 120 67 302 271 312 261 267 267 263 285 358 289 270 236 257 292 289 122 118 119 113 113 110 105 111 112 106 104 102 105 106 108 122 150 168 174 178 181 180 178 176 173 171 171 171 167 168 177 178 178 179 175 174 173 173 176 176 175 176 178 177 176 177 178 175 170 166 162 159 157 156 155 156 156 154 148 141 133 124 119 119 123 124 125 127 126 129 133 135 139 140 140 135
182 171 139 137 147 143 199 220 189 228 272 298 313 9 157 221 262 240 257 311 74 101 94 95 94 94 96 91 88 92 85 83 86 83 86 96 106 114 141 168 178 180 176 175 173 172 173 171 168 162 158 163 167 170 178 181 177 173 174 179 180 181 183 184 183 181 182 186 183 177 172 166 161 160 159 157 156 158 158 154 149 143 137 132 128 128 129 128 127 122 120 119 119 124 130 129 129
261 132 99 156 183 152 160 183 174 174 148 312 309 268 204 201 259 290 26 45 95 104 104 104 99 92 92 87 80 84 76 68 73 74 77 78 87 93 103 130 160 173 174 175 177 179 177 169 165 168 170 175 180 183 187 189 183 176 174 179 183 186 187 188 187 184 187 190 185 181 177 170 163 161 161 160 158 159 160 159 157 151 147 145 141 137 131 125 125 122 118 114 107 107 114 117 122
277 33 82 236 177 129 119 229 195 100 100 280 269 251 298 325 309 343 53 85 104 108 115 114 114 113 106 106 107 102 93 83 78 82 88 85 90 99 106 119 141 162 170 176 182 188 185 177 178 185 187 187 188 188 189 188 184 177 175 181 188 193 193 192 191 188 191 194 189 184 180 173 168 166 166 164 161 160 159 161 163 159 154 151 148 149 143 131 131 131 128 122 115 111 111 113 119
111 87 215 215 63 85 106 124 354 52 110 272 269 183 322 13 302 335 23 21 37 104 122 123 122 123 120 126 133 125 119 113 107 102 103 105 105 106 111 122 142 160 171 179 186 193 194 192 194 193 188 184 184 187 187 186 184 180 178 183 191 198 199 196 195 195 195 196 192 189 184 177 172 169 170 168 164 163 162 161 163 163 163 159 154 155 157 155 152 148 146 139 131 128 124 122 122
123 175 179 96 85 352 67 115 147 105 157 274 292 106 33 100 255 323 355 328 298 116 130 132 133 135 135 140 140 132 124 114 108 101 96 96 91 91 102 120 144 161 174 183 188 193 198 198 199 196 191 187 185 186 185 185 188 185 184 188 193 202 205 200 198 198 198 199 196 193 189 183 177 172 171 169 167 168 167 166 164 163 168 170 169 168 173 175 167 161 164 159 150 152 149 139 133
24 69 29 53 135 156 162 143 150 147 159 243 297 22 317 234 278 318 313 297 254 179 127 99 107 118 125 134 129 118 112 103 99 95 88 85 82 85 104 129 150 165 178 187 189 194 198 198 198 196 192 187 185 187 185 185 189 188 188 194 198 205 210 205 200 198 199 202 201 197 195 190 183 179 175 170 169 168 168 170 171 170 173 178 180 179 183 190 185 184 188 181 176 185 188 169 157
353 355 349 351 83 98 128 112 93 123 135 174 141 36 287 261 263 284 291 338 104 129 104 74 82 95 97 115 119 112 111 109 105 101 96 91 88 89 104 130 153 167 183 192 196 201 200 196 196 195 191 187 184 185 184 186 190 190 192 198 202 207 211 207 202 201 201 204 205 202 199 195 190 187 183 177 174 171 167 168 172 176 179 185 190 187 189 196 198 204 211 206 204 207 208 200 188
181 302 306 151 132 110 107 12 315 106 127 157 146 141 270 267 259 268 269 116 110 113 108 106 121 128 123 126 131 129 122 118 112 105 102 100 98 97 102 118 139 157 180 195 200 201 196 190 192 194 195 192 189 188 188 190 196 198 198 201 205 212 215 209 204 203 203 205 208 206 203 199 194 193 191 187 181 177 172 169 171 176 181 186 193 196 197 201 205 211 216 219 223 224 221 218 215
Height
772 772 772 772 772 772 774 775 787 790 791 800 792 787 777 762 761 760 758 752 755 755 744 742 739 738 744 754 759 760 763 764 767 773 777 769 764 768 770 773 776 776 778 780 781 783 784 785 785 785 785 785 787 789 791 793 795 796 798 800 802 803 804 805 806 807 808 809 810 810 811 812 813 814 815 816 817 817 818 818 818 818 818 818 819 819 820 820 821 821 821 822 822 822 822 823 823
772 772 771 772 771 773 777 776 792 798 799 802 789 783 772 760 762 761 756 751 755 752 742 741 742 744 746 750 752 757 765 764 761 764 767 766 767 772 774 779 782 779 777 779 780 782 784 785 786 786 786 787 788 790 792 794 795 797 799 801 802 804 805 806 807 807 808 809 810 811 812 813 814 815 816 817 817 818 818 819 819 819 819 819 820 820 821 821 821 822 823 823 823 823 823 823 824
771 772 771 772 771 774 777 779 793 803 804 800 788 777 766 763 762 755 750 746 747 743 740 742 745 750 750 753 753 759 769 764 760 762 766 768 771 775 776 779 784 784 781 780 782 783 786 787 788 788 787 788 789 791 793 795 797 798 800 802 803 804 806 807 807 808 809 810 811 812 813 814 815 815 817 817 818 819 819 819 820 820 820 820 821 821 822 822 822 823 823 824 824 824 824 824 825
771 771 771 771 774 776 780 786 792 799 802 796 788 774 763 761 756 750 743 739 738 737 741 744 752 752 751 760 758 761 768 764 762 761 766 770 771 773 772 773 777 783 785 784 785 786 787 789 789 789 788 789 790 792 794 796 798 799 801 803 804 806 807 808 808 809 810 811 812 813 813 814 815 816 817 817 818 819 819 820 820 821 821 821 822 822 822 823 823 823 824 825 825 825 825 825 826
771 771 771 771 777 779 781 788 791 795 794 788 784 770 761 758 752 749 740 737 735 736 741 745 757 755 752 759 759 764 767 763 762 760 765 770 769 769 770 773 776 781 784 784 785 786 788 789 790 789 789 790 792 793 795 797 799 800 802 804 805 807 808 809 809 810 811 812 813 814 814 815 815 816 817 817 818 819 820 820 821 821 822 822 822 823 823 823 824 824 825 825 826 826 826 826 827
770 770 771 771 775 776 783 792 793 793 782 777 778 767 762 755 750 749 741 740 737 737 739 743 753 755 759 759 756 761 762 761 763 763 765 768 769 770 771 774 776 779 782 783 784 786 788 790 791 791 791 791 793 794 796 798 799 801 803 804 806 807 809 809 810 811 812 813 814 815 815 815 816 816 817 817 818 819 820 821 821 822 822 823 823 824 823 824 824 825 826 826 826 826 827 827 828
770 771 772 774 776 776 789 795 792 789 775 770 771 763 761 752 747 747 744 746 744 740 739 743 745 751 764 759 759 761 756 759 761 764 764 766 769 770 772 774 775 778 781 783 784 786 789 792 792 792 791 792 793 795 797 798 800 802 803 805 807 808 809 810 811 812 813 814 815 815 816 816 817 817 817 817 818 819 820 821 822 822 823 824 824 824 824 825 825 825 826 826 827 827 827 827 828
770 772 773 778 782 783 790 792 786 783 773 765 763 759 757 750 746 748 745 746 749 746 744 745 739 752 767 758 766 766 757 759 758 763 764 765 770 771 773 774 776 777 780 783 784 787 790 793 793 792 792 792 794 795 797 798 800 802 804 805 807 808 809 811 811 812 813 814 815 816 816 817 818 818 818 818 818 819 820 821 822 823 823 824 824 825 825 825 825 826 826 826 827 827 827 827 827
770 773 775 780 786 789 791 790 783 777 771 764 759 755 752 748 746 747 743 743 748 748 748 745 736 752 768 761 769 768 762 763 759 762 764 767 770 772 774 774 776 776 780 783 785 788 791 793 793 792 792 792 794 795 797 799 801 802 804 805 807 809 810 811 811 813 814 815 816 816 817 818 818 819 819 819 819 819 820 821 822 823 824 824 825 825 825 825 825 826 826 826 826 827 827 827 827
772 774 776 782 787 794 794 789 783 776 769 762 757 751 747 745 743 743 742 744 747 748 748 742 740 753 765 767 772 768 767 765 762 764 765 767 770 772 775 775 777 777 780 783 786 789 791 794 793 793 793 793 795 796 798 799 801 802 804 806 807 809 810 811 811 813 814 815 816 817 818 818 819 820 820 820 820 820 820 821 822 823 824 824 825 825 825 825 825 825 826 826 826 827 827 827 827
776 775 776 785 791 795 794 788 784 776 767 760 755 745 741 738 739 741 741 747 746 747 747 744 752 758 763 770 773 769 768 767 764 766 767 768 771 774 776 776 778 778 779 783 787 791 793 794 794 794 794 795 796 797 799 800 801 803 804 806 807 808 809 811 811 813 814 815 816 817 818 819 820 820 821 821 821 821 821 822 822 823 824 824 825 825 825 825 826 825 826 826 826 827 827 827 827
779 778 778 789 794 792 788 787 783 775 768 762 755 742 735 733 738 741 741 749 748 749 746 744 753 755 765 774 773 770 768 769 768 768 770 771 773 776 777 778 779 780 781 784 789 792 793 795 795 796 795 796 797 798 799 800 802 803 805 806 807 808 810 811 812 813 814 816 817 817 818 819 820 820 821 821 822 822 822 823 823 824 824 825 825 825 826 826 826 825 826 826 826 827 827 827 827
779 779 781 789 789 786 783 785 781 775 770 761 753 741 733 733 738 740 740 746 748 751 746 742 746 750 767 775 771 772 770 771 771 772 773 774 776 778 781 782 783 786 786 787 790 792 794 795 796 796 797 798 798 799 800 802 803 804 806 806 808 809 810 812 812 814 815 816 817 818 819 820 820 821 822 822 822 823 823 823 824 825 825 826 826 826 826 826 826 826 826 826 826 827 827 827 828
775 775 779 786 785 783 780 781 777 776 773 757 749 740 734 735 735 734 737 745 747 747 744 741 742 751 769 774 774 774 770 772 772 774 775 776 778 780 786 787 788 792 794 791 790 793 794 795 796 797 798 799 800 801 802 803 804 806 807 808 809 810 811 813 813 814 815 816 817 818 819 820 820 821 822 822 822 823 823 824 824 825 825 826 826 826 827 826 827 826 826 827 827 827 827 827 828
771 771 776 784 784 782 778 777 774 776 771 753 746 739 736 736 731 732 735 744 747 741 740 742 740 750 764 768 772 770 768 771 771 774 775 776 778 781 785 788 792 795 799 797 794 794 795 796 797 798 799 800 802 803 804 805 806 807 808 809 810 811 812 813 814 815 816 817 818 818 819 820 820 821 821 822 822 823 824 824 825 825 826 826 826 827 827 827 827 827 827 827 827 827 827 827 828
767 769 777 784 785 785 778 772 772 775 766 750 745 739 739 738 730 735 733 735 745 740 739 745 740 744 754 757 760 763 766 769 770 772 773 775 778 780 781 784 790 794 799 802 799 796 796 798 798 800 801 802 804 805 806 807 808 808 809 810 811 812 813 814 815 815 816 817 818 818 819 820 820 821 821 822 822 823 824 825 825 825 826 826 827 827 827 827 828 828 827 827 827 827 827 827 828
765 771 782 786 785 785 776 769 770 772 763 751 747 742 745 743 733 733 732 732 743 745 743 746 742 741 749 753 755 761 766 768 769 771 772 777 779 782 782 783 788 792 798 803 801 799 798 800 800 802 803 804 805 806 807 807 808 809 810 811 811 813 813 814 815 816 816 817 818 818 819 820 821 821 821 822 822 823 824 824 825 826 826 827 827 827 828 828 828 828 828 828 828 828 827 827 828
767 775 784 786 784 778 769 766 765 764 762 756 750 746 747 747 740 734 737 743 745 749 750 748 747 747 750 753 756 761 765 767 768 770 774 778 781 783 785 786 789 792 797 801 801 800 801 801 802 803 804 805 806 807 808 808 809 810 810 812 812 814 814 815 815 816 817 817 818 818 819 820 821 821 821 822 822 823 824 824 825 826 827 827 828 828 828 828 828 828 828 828 828 828 828 828 828
768 775 781 781 776 768 761 762 761 760 760 756 751 747 746 747 743 736 745 754 750 755 759 754 755 757 757 758 760 764 766 768 769 770 774 777 781 783 785 788 792 795 798 801 801 802 803 802 803 804 804 805 806 807 808 808 809 810 811 812 813 814 815 816 816 817 817 818 818 819 820 820 821 821 822 823 823 823 824 824 825 826 827 827 828 828 828 828 828 828 828 829 828 828 828 828 829
766 771 778 775 767 762 758 758 757 756 755 754 751 746 745 745 741 739 747 756 754 757 760 758 762 763 763 763 764 767 769 771 771 772 775 777 780 782 784 787 790 794 798 801 803 804 804 803 803 804 804 805 806 807 808 808 809 810 811 812 814 815 815 816 817 818 818 819 819 819 820 821 821 822 823 823 823 824 824 824 825 826 827 827 827 828 828 828 829 829 829 829 829 828 828 829 829
765 767 772 766 761 761 756 754 752 752 752 752 750 747 747 742 739 741 746 756 760 757 752 752 759 761 763 766 767 770 772 774 775 775 776 777 780 782 783 785 786 789 793 799 803 805 804 804 803 803 804 804 805 806 807 808 809 810 811 812 814 815 816 817 817 818 819 820 820 820 820 821 821 822 823 823 823 824 824 824 825 826 827 827 827 827 828 828 828 829 829 829 829 829 829 829 830
765 763 763 759 758 760 754 750 750 749 749 750 750 749 747 741 740 743 744 752 755 751 747 747 751 754 759 764 768 771 773 776 777 777 776 777 779 781 783 784 786 789 792 796 799 802 803 802 802 802 803 804 805 806 807 808 809 810 811 812 814 815 816 817 818 819 819 820 820 820 820 820 821 822 823 822 823 823 824 825 826 827 827 827 827 827 828 828 828 828 829 829 830 830 830 830 831
766 764 758 757 756 758 752 748 749 748 749 750 749 746 744 745 746 744 743 746 745 743 745 748 751 753 756 762 767 771 773 776 777 777 776 777 778 780 782 783 785 787 789 792 794 797 799 800 801 801 802 803 805 806 807 808 809 810 811 812 814 815 816 817 818 818 819 819 819 819 819 820 821 822 822 821 822 822 823 825 826 826 827 827 827 827 828 827 828 828 829 830 830 831 830 831 831
766 765 758 755 753 753 749 747 747 746 749 747 744 744 744 749 750 747 748 746 742 743 746 749 753 755 758 763 768 771 774 776 777 777 777 777 777 778 780 781 782 783 785 787 789 791 794 797 799 799 801 802 804 806 807 808 809 810 812 813 814 815 816 817 818 819 818 818 818 818 819 820 820 821 820 820 821 822 823 824 825 826 826 827 827 827 828 828 828 828 829 830 830 831 831 831 831
763 762 756 752 750 748 745 746 746 745 745 743 742 745 746 746 746 750 753 748 745 746 748 751 754 757 761 766 770 773 775 776 777 778 779 779 778 778 779 780 780 781 782 783 784 786 789 793 796 797 799 801 803 805 806 808 809 811 812 813 814 815 816 817 818 818 817 817 817 819 819 819 819 819 819 819 821 822 823 824 825 826 826 826 826 827 827 828 828 828 829 830 831 831 831 831 831
758 756 754 751 749 745 742 744 744 743 743 741 744 746 744 741 744 755 755 749 749 749 752 754 756 760 764 768 770 772 774 776 776 777 779 780 780 778 777 778 778 778 779 779 779 782 785 789 793 795 798 800 802 804 806 808 809 810 812 813 814 815 816 817 818 817 816 816 817 818 819 818 818 819 819 819 820 821 823 824 825 826 826 826 826 827 827 828 828 829 829 830 831 831 832 832 832
752 751 751 749 748 744 742 743 741 742 741 739 744 746 743 739 745 762 759 750 750 752 756 757 758 763 765 768 770 771 773 773 774 775 778 780 781 778 776 776 777 777 779 779 779 782 786 789 792 795 797 800 802 804 806 807 809 811 812 813 814 815 816 816 817 817 816 816 816 817 818 817 817 819 819 819 820 821 822 823 824 825 825 825 825 826 827 827 828 828 829 829 830 831 831 832 832
749 750 751 747 746 744 741 742 740 740 741 737 740 742 742 741 746 758 758 753 751 752 758 760 761 764 766 769 771 772 772 772 773 774 776 778 778 777 775 775 775 777 779 780 781 784 787 790 793 796 798 800 802 804 806 808 810 811 812 813 813 815 815 815 816 816 815 816 816 817 817 816 817 817 818 819 819 821 821 823 824 824 824 825 825 826 826 827 828 828 829 829 830 831 831 831 832
749 748 753 748 744 744 741 741 740 741 742 735 738 748 749 746 748 751 753 755 753 754 760 762 764 766 767 770 771 773 772 772 774 774 775 776 776 775 774 774 775 777 779 781 783 786 788 790 793 796 798 801 803 804 806 808 810 811 812 812 813 815 815 815 815 815 815 815 815 816 816 815 816 817 817 818 819 820 821 822 823 823 824 824 825 825 826 827 828 828 828 829 830 830 831 831 831
748 747 751 751 751 749 740 739 739 741 742 734 742 761 758 747 750 751 750 754 755 758 762 762 764 766 768 769 770 772 772 772 772 773 774 775 775 774 773 775 776 777 779 782 784 787 789 791 794 796 799 801 803 805 806 808 810 811 812 812 813 814 815 815 815 815 815 814 815 815 815 815 816 817 817 818 819 820 821 821 822 822 823 824 825 825 826 827 827 827 828 829 830 830 831 831 831
751 751 751 756 762 754 740 738 740 742 741 733 745 766 758 746 751 751 748 750 753 759 762 762 764 766 768 768 769 771 771 770 770 772 774 774 774 774 774 776 777 779 780 783 785 788 790 792 795 797 799 802 804 805 807 808 810 811 812 812 813 814 815 815 814 814 815 815 814 814 815 815 816 816 817 818 819 820 820 821 821 822 823 823 824 825 826 826 826 827 827 828 829 830 831 831 832
753 760 763 764 766 757 743 738 739 743 741 735 747 762 755 745 748 748 747 749 751 757 762 762 764 766 768 768 768 769 770 770 770 772 774 774 774 774 775 777 779 781 782 784 786 789 791 793 795 797 800 803 804 806 807 808 810 811 812 813 813 814 814 815 815 815 815 815 815 815 815 815 815 816 817 818 819 820 820 821 821 821 822 822 823 824 825 826 826 826 827 828 829 830 831 831 832
760 765 771 768 766 763 753 741 736 740 742 741 746 755 753 744 744 746 748 750 751 756 762 762 764 766 767 768 768 768 769 770 770 771 772 773 775 776 777 779 780 781 782 784 786 789 792 794 796 798 800 802 804 806 807 808 809 811 812 813 814 814 814 815 815 815 815 816 816 816 816 816 816 817 817 818 818 819 820 821 821 821 821 821 822 823 824 825 826 826 827 828 829 830 831 831 832
769 768 770 769 767 767 761 747 735 736 742 745 745 748 750 744 742 747 749 750 752 757 761 762 763 766 767 767 767 767 767 768 768 768 771 773 775 777 779 780 780 781 782 783 786 789 792 794 796 798 800 802 804 805 806 808 809 811 812 812 813 814 815 815 815 815 816 816 816 817 817 817 817 817 818 818 818 819 820 821 821 821 821 821 822 823 824 825 825 826 827 827 829 829 830 831 832
772 770 770 769 767 765 764 753 737 734 742 746 746 749 749 745 744 747 749 749 752 756 758 760 762 764 765 766 767 767 767 767 765 766 770 773 775 777 779 781 781 781 782 784 786 790 792 794 797 798 800 802 803 805 806 807 809 810 811 812 813 813 814 815 815 816 816 816 817 818 818 818 819 819 819 819 819 820 820 821 821 821 821 821 821 822 823 824 825 826 827 827 829 830 830 831 831
768 768 768 769 768 764 759 749 733 731 742 745 745 749 747 745 746 748 749 749 751 754 757 759 762 763 764 766 766 766 768 767 765 766 769 772 774 776 779 781 782 781 783 785 788 791 793 795 797 798 800 802 803 805 806 807 808 810 811 811 812 813 814 815 816 816 816 816 817 818 819 820 820 821 821 821 821 821 821 821 821 821 820 820 821 822 822 823 824 825 826 827 828 829 830 831 831
764 766 765 764 767 763 751 742 730 726 740 746 742 746 747 744 747 750 751 753 754 757 760 762 762 763 763 764 764 765 767 766 766 768 769 771 773 775 779 782 782 782 784 785 788 791 793 795 796 798 800 802 803 804 806 807 808 809 810 811 812 813 814 814 815 816 816 816 817 818 820 821 822 822 823 822 822 822 821 821 821 820 820 820 821 821 822 823 824 825 826 827 828 829 830 831 832
761 763 762 761 765 759 746 741 734 727 737 747 744 746 749 743 744 749 751 757 759 757 759 762 761 761 761 760 762 763 765 766 768 770 770 771 773 776 779 781 781 782 784 785 788 790 792 793 795 797 800 802 804 805 806 807 807 808 809 810 811 812 813 814 815 815 816 816 817 819 820 822 823 823 823 823 823 823 822 821 821 821 820 820 821 822 822 823 824 825 826 827 828 829 830 831 832
757 760 762 763 762 755 745 739 736 732 736 747 747 746 750 746 744 747 748 751 754 752 751 754 757 760 761 761 761 762 764 767 768 770 771 771 774 776 778 780 780 781 783 785 787 789 791 793 795 798 800 802 804 806 807 807 808 808 808 810 810 811 813 814 814 814 815 816 817 819 821 822 823 823 824 824 824 824 823 822 822 822 822 821 821 822 823 823 824 825 826 827 828 829 831 831 832
755 759 762 765 761 757 754 743 737 737 739 745 747 744 748 750 748 748 747 746 749 750 750 750 752 754 755 755 756 758 761 765 767 769 770 771 774 775 777 779 779 781 783 784 786 788 790 793 795 798 800 802 804 805 807 807 807 808 809 811 811 812 813 814 814 815 816 817 818 819 820 822 822 823 824 824 825 825 824 824 823 823 823 822 822 822 823 824 825 825 826 827 828 828 830 831 832
757 756 759 763 759 756 755 748 741 740 741 741 745 751 749 747 749 749 748 748 750 752 753 754 754 751 751 753 753 754 755 758 763 766 768 769 771 773 775 777 779 780 782 783 785 787 790 793 795 797 800 801 803 804 805 806 806 808 809 811 813 813 814 814 814 815 817 818 819 820 821 821 822 823 824 825 825 825 825 825 824 824 823 823 823 823 823 824 825 826 826 827 827 828 829 830 831
760 754 752 755 756 755 753 752 751 753 756 747 749 767 764 748 747 749 749 751 753 753 753 754 754 753 754 755 754 753 753 756 759 761 764 766 768 771 774 776 778 779 781 783 784 786 789 793 795 797 799 801 802 803 804 805 805 806 808 811 812 813 814 815 815 816 817 819 820 821 821 821 822 823 824 825 826 826 826 826 826 825 825 824 824 824 824 824 825 826 827 827 827 828 828 829 830
765 753 746 749 753 755 755 754 757 764 767 754 750 769 774 758 747 745 750 753 753 755 755 754 754 755 755 755 754 753 753 756 759 761 763 764 767 770 772 774 776 778 780 782 784 786 789 792 795 797 799 800 801 802 803 803 804 806 808 810 812 813 815 816 818 818 819 819 820 821 821 821 822 823 824 825 826 827 827 827 827 826 826 826 826 825 825 825 826 826 826 827 827 828 828 829 830
762 747 742 748 750 754 756 755 759 762 761 757 753 759 772 770 753 746 751 752 751 754 754 754 754 754 753 753 753 753 752 754 757 760 762 763 765 767 770 773 775 777 779 782 784 786 788 791 794 797 798 800 801 802 802 802 803 805 808 811 813 815 816 818 820 820 820 820 820 821 821 822 822 823 824 825 826 827 828 828 828 828 827 827 827 827 826 826 826 826 827 827 827 828 829 829 830
750 740 741 745 746 750 752 753 759 761 763 768 764 760 774 778 758 749 752 750 750 751 748 748 750 751 752 751 752 752 751 751 753 757 760 762 764 766 769 772 774 777 779 780 782 784 787 790 793 796 798 799 800 801 802 803 804 805 809 812 814 817 818 820 821 821 821 820 820 821 822 822 822 823 824 826 827 828 829 829 830 829 829 829 828 828 828 827 827 827 827 827 828 828 829 830 830
741 738 743 742 743 748 749 753 757 761 771 776 769 765 776 781 762 752 754 751 749 747 745 747 747 749 750 750 752 752 752 753 754 756 759 762 764 766 769 772 774 776 778 780 782 784 786 789 792 794 796 798 800 801 802 804 804 806 809 811 814 817 820 821 822 822 822 821 821 821 822 822 823 823 824 826 827 828 829 830 830 831 830 830 830 829 829 829 829 829 828 829 829 829 829 830 830
738 740 745 746 748 747 750 758 758 768 782 776 769 767 772 782 769 754 754 751 745 742 745 748 746 748 751 751 752 753 753 755 756 758 761 764 766 768 771 773 775 777 779 781 782 784 786 788 790 793 795 797 799 801 802 803 804 805 808 811 813 816 819 821 822 822 822 821 821 821 822 822 823 824 825 826 827 828 829 830 831 831 831 831 831 830 830 830 830 830 829 830 830 830 830 830 830
740 746 749 754 760 756 760 767 766 780 790 776 770 768 770 782 772 754 751 748 744 743 745 748 748 749 752 752 753 754 755 755 756 760 763 766 768 770 772 774 776 778 780 781 782 783 785 787 789 792 795 797 799 802 803 802 803 804 807 810 813 815 818 820 821 821 821 821 821 821 821 822 823 824 825 826 827 828 829 830 831 831 831 831 831 831 831 831 830 830 830 830 830 830 831 831 831
744 751 754 764 776 777 780 782 781 787 786 775 772 769 771 779 766 752 750 746 744 745 745 747 748 749 752 753 754 755 755 757 758 761 764 766 768 770 771 773 775 777 779 780 781 783 785 787 790 792 794 796 796 799 802 801 801 803 806 810 813 815 818 819 820 821 821 821 821 821 821 821 822 823 825 826 827 828 829 830 830 831 831 831 831 831 831 831 831 831 831 831 831 831 832 832 832
747 752 757 767 781 792 796 795 794 792 781 775 774 770 775 778 762 751 751 748 746 746 747 748 747 750 753 754 755 756 757 758 760 762 764 767 768 769 770 772 774 776 778 781 782 785 787 789 790 791 792 793 793 797 802 802 801 803 806 810 813 815 817 818 820 820 821 822 821 821 820 821 822 823 824 825 826 827 828 829 830 831 831 831 831 831 831 831 831 831 831 831 831 832 832 832 833
745 747 752 760 769 782 791 791 791 791 783 777 774 772 778 776 760 750 748 748 749 749 750 750 750 752 754 756 759 760 761 761 762 763 765 767 769 769 770 772 773 776 778 781 783 785 786 787 789 791 792 795 798 801 804 803 802 802 804 809 813 815 816 817 819 820 821 822 822 821 821 820 821 822 824 825 826 827 828 829 830 830 831 831 832 832 832 832 832 832 832 832 832 832 833 833 833
746 746 751 757 755 761 776 783 782 783 785 782 776 774 773 765 754 749 749 750 752 752 754 754 755 757 758 760 764 764 765 765 764 765 767 768 769 769 770 771 773 775 777 779 781 782 783 785 787 789 790 793 796 798 798 799 800 800 802 806 811 814 816 817 818 820 821 821 822 821 821 820 821 822 823 824 825 826 827 828 829 830 831 831 832 832 832 833 833 833 833 833 833 834 834 834 834
747 750 753 752 747 750 767 783 783 781 788 787 780 776 770 764 758 753 753 755 756 757 758 760 762 762 763 766 768 768 769 769 769 769 770 771 772 772 773 772 773 774 775 777 778 779 780 782 783 785 786 789 790 791 792 796 798 799 801 805 809 813 815 815 817 818 819 820 821 821 820 820 820 821 822 823 824 825 826 827 829 830 831 831 832 832 833 833 833 834 834 834 834 835 835 835 835
745 753 749 745 749 751 760 778 787 790 795 789 780 778 778 779 775 763 759 761 762 762 762 764 766 766 768 770 771 771 771 772 773 773 773 774 774 775 774 773 773 773 774 775 776 777 778 779 781 781 783 785 788 790 792 795 798 798 800 803 806 809 812 814 815 816 818 819 820 820 820 819 819 820 821 822 823 824 825 827 828 829 830 831 832 832 833 833 834 834 834 834 834 835 835 835 835
736 742 739 744 758 763 764 776 786 794 798 790 782 784 785 785 781 772 768 768 767 766 765 766 766 767 768 770 770 770 770 771 772 772 773 773 773 773 773 774 775 774 775 775 776 777 778 779 780 780 781 783 786 789 790 794 796 797 798 801 804 807 810 811 812 814 816 817 817 818 819 819 819 819 820 821 822 823 825 826 827 828 829 830 831 832 833 833 834 834 834 834 835 835 835 835 836
733 736 739 745 755 762 766 773 778 785 795 795 788 790 789 782 779 775 771 768 766 766 767 767 768 767 766 767 767 767 767 768 769 770 772 772 773 774 775 776 776 776 776 776 777 778 778 779 780 780 782 783 785 788 789 792 795 795 796 799 801 804 807 809 810 812 813 814 815 816 817 818 818 818 819 819 820 821 822 824 825 827 828 829 830 831 832 832 833 834 834 835 835 835 836 836 836
747 747 749 750 755 761 765 770 774 777 788 796 795 798 795 782 777 775 770 766 764 764 767 769 769 768 767 767 766 766 768 768 769 770 773 774 776 777 778 778 778 777 777 777 778 778 778 779 780 781 783 784 786 788 789 791 793 794 795 796 799 802 805 807 809 809 811 812 814 815 816 817 818 818 818 817 818 819 820 822 823 825 826 827 828 829 830 831 832 833 834 834 835 835 836 836 836
752 754 755 756 757 761 768 777 779 774 779 787 790 799 798 783 776 774 769 766 764 762 765 769 769 769 768 769 769 769 769 769 770 771 773 776 778 779 780 780 779 779 778 778 778 779 779 780 781 783 784 785 787 788 789 791 792 794 796 798 801 804 805 807 808 808 810 811 812 814 815 816 817 817 817 817 818 818 819 820 821 823 824 825 827 828 829 830 830 831 832 833 834 835 835 836 836